Location: F?ge?el
(45.8833°N, 22.5833°E)
Time: 13:47:51
(UTC+00:00)

Cosmos 1634 Rocket - Pass Details

Date: 17 November 2025
Orbit: 958 x 992 km, 82.9° (Epoch: 06 December)

Event Time Altitude Azimuth Distance (km) Brightness Sun altitude
Rises 17:15:57 0° 172° (S) 3,681 7.0 -24.2°
Reaches altitude 10° 17:18:30 10° 168° (SSE) 2,733 6.2 -24.6°
Enters shadow 17:22:52 43° 141° (SE) 1,355 4.4 -25.4°
Exits shadow 17:33:06 - 13° (NNE) 3,635 6.9 -27.1°
Sets 17:33:15 0° 13° (NNE) 3,687 6.9 -27.2°
